[[{"header":{"parameterUnit":"m.s-1","parameterCategory":1,"la1":30.2991,"la2":30.254,"lo1":-89.0895,"lo2":-89.0444,"dy":0.0017,"dx":0.0017,"nx":28,"ny":28,"refTime":"2025-08-03T03:00:00:Z","depth":0,"parameterNumber":2,"parameterNumberName":"U-component_of_WINDS"},"data":[0,0,0,0,0,0,0,0,0,0,0,0,0,0,0,0,0,0,0,0,0,0,0,0,0,0,0,0,0,0,0,0,0,0,0,0,0,0,0,0,0,0,0,0,0,0,0,0,0,0,0,0,0,0,0,0,0,0,-0.6837,-0.6837,0,-0.6925,-0.6926,-0.6927,-0.6966,-0.6966,-0.6966,-0.6966,-0.7061,-0.7063,-0.7066,0,0,0,0,0,0,0,0,0,0,0,0,0,-0.6706,-0.6708,-0.6836,-0.6838,-0.6839,-0.6925,-0.6926,-0.6927,-0.6966,-0.6966,-0.6966,-0.6966,-0.706,-0.7063,-0.7066,0,0,0,0,0,0,0,0,0,0,0,0,0,-0.6775,-0.6709,-0.6836,-0.6868,-0.6872,-0.6924,-0.6926,-0.6927,-0.6966,-0.6966,-0.6966,-0.6965,-0.7059,-0.7063,-0.7066,-0.7095,0,0,-0.7079,-0.708,0,0,0,0,0,0,0,0,-0.6771,-0.678,-0.6862,-0.6866,-0.687,-0.6934,-0.6915,-0.6984,-0.6966,-0.6931,-0.6966,-0.6965,-0.7019,-0.7026,-0.7043,-0.7099,-0.7103,-0.7079,-0.7081,-0.7083,-0.7084,0,0,0,0,0,0,0,-0.6767,-0.6777,-0.6872,-0.6864,-0.6869,-0.688,-0.6889,-0.6928,-0.6975,-0.6934,-0.6937,-0.6946,-0.7021,-0.7039,-0.7046,-0.7105,-0.7079,-0.7082,-0.7085,-0.7086,-0.7189,-0.719,0,0,0,0,0,0,-0.6756,-0.6772,-0.6869,-0.6874,-0.6819,-0.6882,-0.6893,-0.6914,-0.6975,-0.6983,-0.6946,-0.6948,-0.7033,-0.7041,-0.7049,-0.7087,-0.7083,-0.7087,-0.7089,-0.7189,-0.719,-0.719,0,0,0,0,0,0,-0.6753,-0.6764,-0.6865,-0.6824,-0.6838,-0.6885,-0.6908,-0.6916,-0.6934,-0.6984,-0.6993,-0.6956,-0.7033,-0.7044,-0.7083,-0.7091,-0.7089,-0.7092,-0.7189,-0.7189,-0.719,-0.7162,0,0,0,0,0,0,-0.6749,-0.6763,-0.6773,-0.6824,-0.684,-0.6896,-0.6908,-0.6918,-0.694,-0.6943,-0.6996,-0.7004,-0.7034,-0.7077,-0.7087,-0.7096,-0.7095,-0.7188,-0.7189,-0.719,-0.7163,-0.7162,-0.7161,0,0,0,0,0,-0.6744,-0.6763,-0.6773,-0.6785,-0.6853,-0.6896,-0.6906,-0.6938,-0.6941,-0.6952,-0.6984,-0.7003,-0.7088,-0.7081,-0.7092,-0.7103,-0.7188,-0.7189,-0.719,-0.7163,-0.7162,-0.7161,0,0,0,0,0,0,-0.6713,-0.677,-0.6782,-0.6817,-0.6851,-0.6903,-0.6918,-0.6935,-0.6971,-0.6972,-0.7011,-0.7023,-0.7059,-0.7085,-0.7076,-0.7134,-0.714,-0.7143,-0.7116,-0.7115,-0.7114,-0.7108,-0.7099,0,0,0,0,0,-0.671,-0.6738,-0.6787,-0.6814,-0.683,-0.6871,-0.6891,-0.6912,-0.695,-0.6965,-0.7,-0.7037,-0.7073,-0.7095,-0.7131,-0.7167,-0.7179,-0.718,-0.7179,-0.7178,-0.7181,-0.7203,-0.7204,-0.7193,-0.7193,-0.7193,0,0,-0.6704,-0.6739,-0.6755,-0.6808,-0.6837,-0.6868,-0.6883,-0.6914,-0.6938,-0.6971,-0.701,-0.7037,-0.7081,-0.7118,-0.7137,-0.7141,-0.7186,-0.7179,-0.7178,-0.7181,-0.7203,-0.7204,-0.7205,-0.7193,-0.7193,-0.7193,0,0,-0.671,-0.6738,-0.6764,-0.6792,-0.6835,-0.6862,-0.6868,-0.6917,-0.6936,-0.6975,-0.7,-0.703,-0.7089,-0.712,-0.7143,-0.716,-0.7179,-0.7171,-0.7167,-0.7187,-0.7188,-0.7189,-0.7196,-0.7198,-0.7173,-0.7173,-0.7173,0,-0.6698,-0.6743,-0.6775,-0.6805,-0.6828,-0.6857,-0.6884,-0.6911,-0.6964,-0.698,-0.6983,-0.7059,-0.7091,-0.7137,-0.7141,-0.7158,-0.7168,-0.7165,-0.7185,-0.7187,-0.7188,-0.7195,-0.7198,-0.7172,-0.7172,-0.7172,-0.7172,0,-0.6727,-0.6758,-0.6773,-0.6822,-0.6847,-0.6875,-0.6913,-0.6935,-0.6954,-0.6981,-0.7022,-0.706,-0.7104,-0.7117,-0.7137,-0.7166,-0.7167,-0.7177,-0.7184,-0.7187,-0.7195,-0.7198,-0.717,-0.717,-0.7171,-0.7171,0,0,-0.6715,-0.6781,-0.6786,-0.6809,-0.6859,-0.6884,-0.6914,-0.6956,-0.6974,-0.701,-0.7037,-0.7086,-0.7096,-0.7123,-0.7146,-0.7164,-0.7176,-0.7173,-0.7175,-0.7173,-0.7212,-0.7204,-0.7207,-0.7189,-0.7189,-0.719,-0.7209,0,-0.6728,-0.6782,-0.6811,-0.6853,-0.6883,-0.6911,-0.6938,-0.6972,-0.6998,-0.7028,-0.7058,-0.7093,-0.7103,-0.7119,-0.7138,-0.7171,-0.7185,-0.717,-0.7216,-0.7217,-0.7204,-0.7211,-0.7203,-0.7219,-0.7212,-0.7212,-0.7213,0,-0.675,-0.6784,-0.6828,-0.6875,-0.6888,-0.6911,-0.6952,-0.698,-0.702,-0.7038,-0.7067,-0.709,-0.7125,-0.7128,-0.7176,-0.7165,-0.7186,-0.7205,-0.7206,-0.7213,-0.7215,-0.7218,-0.7225,-0.7227,-0.7217,-0.7217,-0.7217,0,-0.6738,-0.6795,-0.6829,-0.6847,-0.6902,-0.6918,-0.6942,-0.6981,-0.7004,-0.7041,-0.7056,-0.7096,-0.7118,-0.715,-0.7184,-0.7183,-0.7229,-0.7235,-0.7247,-0.7246,-0.7256,-0.7255,-0.7267,-0.7267,-0.7267,-0.7267,-0.7267,0,-0.675,-0.6776,-0.6824,-0.6845,-0.6876,-0.691,-0.694,-0.6966,-0.7001,-0.7029,-0.7057,-0.7082,-0.7125,-0.7157,-0.7184,-0.7221,-0.723,-0.7247,-0.7254,-0.7245,-0.7243,-0.726,-0.726,-0.7268,-0.7268,-0.7268,-0.7268,0,-0.6742,-0.6775,-0.6814,-0.6863,-0.6875,-0.6896,-0.6938,-0.6961,-0.6988,-0.7023,-0.7033,-0.7077,-0.7115,-0.7152,-0.7204,-0.7222,-0.7259,-0.7268,-0.7245,-0.7249,-0.7259,-0.7258,-0.7283,-0.7288,-0.7284,-0.7284,-0.7284,0,-0.6748,-0.6768,-0.6819,-0.6838,-0.6861,-0.6893,-0.6916,-0.6951,-0.6975,-0.7022,-0.7039,-0.7079,-0.7113,-0.7174,-0.7211,-0.7252,-0.7262,-0.7268,-0.7268,-0.7259,-0.7263,-0.7262,-0.7265,-0.7267,-0.7267,-0.7267,-0.7267,0,-0.6754,-0.677,-0.6801,-0.6839,-0.6866,-0.6898,-0.6931,-0.6946,-0.6988,-0.7013,-0.7052,-0.7078,-0.7131,-0.7171,-0.7215,-0.7242,-0.7262,-0.7266,-0.7271,-0.7263,-0.7249,-0.7258,-0.7244,-0.7266,-0.7266,-0.7266,-0.7266,-0.7266,-0.6754,-0.6774,-0.6812,-0.6847,-0.6875,-0.6906,-0.6929,-0.6959,-0.6991,-0.7036,-0.7055,-0.7095,-0.7135,-0.7196,-0.7223,-0.7255,-0.726,-0.7267,-0.7269,-0.727,-0.7269,-0.7243,-0.7264,-0.7264,-0.7264,-0.7264,-0.7264,0,-0.6763,-0.6789,-0.682,-0.6865,-0.6893,-0.6907,-0.6945,-0.6967,-0.7001,-0.7037,-0.7069,-0.7115,-0.7154,-0.7194,-0.7236,-0.7254,-0.7265,-0.7264,-0.7264,-0.727,-0.7262,-0.7254,-0.7255,-0.7255,-0.7255,-0.7255,-0.7255,-0.7255,-0.6771,-0.6805,-0.6825,-0.6874,-0.6901,-0.6939,-0.6959,-0.6987,-0.7016,-0.7064,-0.7097,-0.7122,-0.716,-0.7204,-0.7242,-0.7253,-0.7267,-0.7264,-0.7278,-0.727,-0.727,-0.7271,-0.7263,-0.7267,-0.7267,-0.7283,-0.7284,-0.7284]},{"header":{"parameterUnit":"m.s-1","parameterCategory":1,"la1":30.2991,"la2":30.254,"lo1":-89.0895,"lo2":-89.0444,"dy":0.0017,"dx":0.0017,"nx":28,"ny":28,"refTime":"2025-08-03T03:00:00:Z","depth":0,"parameterNumber":3,"parameterNumberName":"V-component_of_WINDS"},"data":[0,0,0,0,0,0,0,0,0,0,0,0,0,0,0,0,0,0,0,0,0,0,0,0,0,0,0,0,0,0,0,0,0,0,0,0,0,0,0,0,0,0,0,0,0,0,0,0,0,0,0,0,0,0,0,0,0,0,2.3424,2.3424,0,2.3418,2.3418,2.3418,2.3386,2.3385,2.3384,2.3383,2.3377,2.3377,2.3378,0,0,0,0,0,0,0,0,0,0,0,0,0,2.3406,2.3407,2.3424,2.3424,2.3424,2.3418,2.3418,2.3418,2.3386,2.3385,2.3384,2.3383,2.3377,2.3377,2.3378,0,0,0,0,0,0,0,0,0,0,0,0,0,2.3408,2.3407,2.3424,2.3407,2.3406,2.3418,2.3418,2.3418,2.3386,2.3385,2.3384,2.3383,2.3377,2.3377,2.3378,2.3406,0,0,2.3381,2.3381,0,0,0,0,0,0,0,0,2.3408,2.3409,2.341,2.3408,2.3407,2.3402,2.3409,2.3414,2.3386,2.3394,2.3383,2.3382,2.3386,2.3386,2.3387,2.3406,2.3406,2.3381,2.3381,2.3382,2.3382,0,0,0,0,0,0,0,2.3408,2.3409,2.3422,2.341,2.3408,2.3399,2.3399,2.341,2.3396,2.3393,2.339,2.339,2.3385,2.3387,2.3387,2.3406,2.3381,2.3381,2.3382,2.3382,2.3445,2.3446,0,0,0,0,0,0,2.3411,2.3409,2.3422,2.3422,2.3405,2.3401,2.34,2.3404,2.3396,2.3394,2.3391,2.3389,2.3386,2.3386,2.3387,2.3417,2.3382,2.3382,2.3383,2.3444,2.3446,2.3447,0,0,0,0,0,0,2.341,2.3412,2.3422,2.3415,2.3415,2.3402,2.3408,2.3405,2.3407,2.3395,2.3392,2.3396,2.3385,2.3386,2.3401,2.3417,2.3383,2.3383,2.3443,2.3445,2.3446,2.348,0,0,0,0,0,0,2.341,2.3412,2.3423,2.3415,2.3416,2.3437,2.3409,2.3406,2.3408,2.3405,2.3398,2.3396,2.3384,2.34,2.3402,2.3417,2.3384,2.3441,2.3444,2.3446,2.3478,2.3483,2.3488,0,0,0,0,0,2.3409,2.3433,2.3424,2.3426,2.3429,2.3438,2.3439,2.3425,2.341,2.342,2.3412,2.3396,2.3415,2.3402,2.3404,2.342,2.344,2.3443,2.3445,2.3476,2.3482,2.3488,0,0,0,0,0,0,2.3443,2.3432,2.3421,2.3444,2.3442,2.3433,2.3446,2.3432,2.3435,2.3432,2.3414,2.3413,2.3431,2.3427,2.3413,2.3446,2.3425,2.3428,2.3447,2.3453,2.3458,2.3458,2.3385,0,0,0,0,0,2.3453,2.3462,2.3452,2.3472,2.3472,2.3459,2.3463,2.3452,2.3449,2.3449,2.3442,2.344,2.3446,2.345,2.3454,2.3478,2.3475,2.3489,2.3494,2.3498,2.3501,2.3511,2.3517,2.3456,2.3456,2.3456,0,0,2.3474,2.3469,2.3476,2.3479,2.3476,2.3485,2.3459,2.3469,2.3475,2.345,2.3464,2.346,2.3456,2.3476,2.3484,2.3473,2.3517,2.3502,2.3505,2.3505,2.3514,2.352,2.3525,2.3457,2.3457,2.3457,0,0,2.3516,2.3514,2.3529,2.3528,2.3524,2.3515,2.3519,2.3512,2.3508,2.3522,2.3503,2.351,2.352,2.3517,2.3518,2.3558,2.3543,2.356,2.3585,2.3596,2.36,2.3605,2.3617,2.3622,2.3563,2.3563,2.3563,0,2.3542,2.3554,2.3539,2.355,2.3552,2.353,2.3545,2.3544,2.3542,2.3543,2.3532,2.3543,2.3539,2.3557,2.3567,2.3568,2.3571,2.356,2.3601,2.3605,2.3609,2.362,2.3625,2.3565,2.3565,2.3565,2.3564,0,2.3585,2.3594,2.3607,2.3606,2.3609,2.3622,2.3609,2.3613,2.3602,2.3595,2.3608,2.3603,2.3605,2.3609,2.3599,2.3625,2.3618,2.3604,2.3582,2.3617,2.3627,2.3632,2.3568,2.3567,2.3567,2.3566,0,0,2.3647,2.3637,2.3642,2.364,2.3635,2.3641,2.3653,2.3655,2.3659,2.3659,2.3667,2.3676,2.3662,2.3663,2.3652,2.3661,2.3691,2.3646,2.3645,2.3653,2.3717,2.3727,2.3732,2.3682,2.3682,2.3683,2.3717,0,2.3686,2.3705,2.3692,2.3713,2.372,2.3699,2.371,2.3707,2.37,2.3705,2.3697,2.3703,2.3686,2.3685,2.3694,2.3686,2.3703,2.3683,2.3688,2.3688,2.3687,2.3738,2.3748,2.378,2.3721,2.3722,2.3722,0,2.3733,2.3734,2.3756,2.3747,2.375,2.3759,2.3759,2.3764,2.3761,2.3755,2.3755,2.3742,2.3752,2.3732,2.3745,2.3732,2.3733,2.3729,2.373,2.3728,2.3706,2.3736,2.379,2.3794,2.3729,2.3729,2.3728,0,2.3773,2.378,2.3794,2.3793,2.3785,2.3791,2.3788,2.3783,2.3785,2.3785,2.3786,2.3788,2.3788,2.3789,2.3776,2.3763,2.379,2.377,2.3785,2.3785,2.379,2.3789,2.3843,2.3794,2.3794,2.3794,2.3794,0,2.3816,2.3829,2.3811,2.382,2.3834,2.3819,2.3833,2.3828,2.3824,2.383,2.3813,2.3819,2.3802,2.3806,2.3797,2.3808,2.3809,2.3803,2.38,2.3804,2.3804,2.3803,2.38,2.3795,2.3795,2.3795,2.3795,0,2.3863,2.3851,2.3864,2.3855,2.3853,2.3864,2.3855,2.3862,2.3854,2.3862,2.3863,2.3851,2.3854,2.3842,2.3844,2.3838,2.3853,2.3848,2.3854,2.3852,2.3867,2.3865,2.392,2.3926,2.3875,2.3875,2.3876,0,2.389,2.39,2.3891,2.3894,2.3891,2.3896,2.3898,2.3883,2.3885,2.3881,2.3888,2.3891,2.3892,2.3899,2.389,2.3891,2.3884,2.3903,2.3884,2.3886,2.3881,2.388,2.388,2.3906,2.3907,2.3908,2.3908,0,2.3938,2.3932,2.3935,2.3935,2.3937,2.3937,2.3936,2.3939,2.3923,2.3926,2.393,2.3931,2.3933,2.3935,2.3934,2.393,2.3916,2.3915,2.3918,2.392,2.3923,2.392,2.3863,2.3913,2.3912,2.3912,2.3912,2.3912,2.3974,2.3982,2.3976,2.398,2.3977,2.3976,2.3981,2.3974,2.3977,2.3977,2.3968,2.3973,2.3968,2.3966,2.3963,2.3966,2.3957,2.3962,2.3963,2.3964,2.3966,2.3924,2.3966,2.3966,2.3966,2.3966,2.3966,0,2.402,2.4016,2.4019,2.4017,2.402,2.4007,2.4005,2.4007,2.4012,2.4008,2.401,2.4013,2.4015,2.4006,2.4006,2.4011,2.4004,2.4011,2.401,2.4009,2.3975,2.3971,2.4016,2.4016,2.4016,2.4016,2.4016,2.4016,2.4044,2.4055,2.4048,2.4057,2.4053,2.4057,2.4057,2.4055,2.4052,2.4057,2.4058,2.4052,2.4046,2.4046,2.4047,2.4044,2.4044,2.4053,2.4048,2.4016,2.4011,2.4006,2.4003,2.4054,2.4054,2.4081,2.4081,2.4081]}]]